Weather in Otradnoe

Russia / Republic of Crimea     44°51′38″N   33°43′59″E
temp.,
°C
wind,
m/s
gust,
m/s
humid.,
%
clouds,
%
prec.,
mm/h
press.,
hPa
HPBL,
m
27 february, sat
sat2700:00+5ssw34870 0.0 102391
03:00+5ssw35900 0.0 1022101
06:00+4s34860 0.0 102064
09:00+6ssw37790 0.0 1020258
12:00+11sw57600 0.0 1019557
15:00+11wsw67630 0.0 1018604
18:00+8wsw35830 0.0 1017366
21:00+7nnw369341 0.0 1018365
28 february, sun
sun2800:00+5n5887100 0.0 1019540
03:00+4n4881100 0.1 1020664
06:00+4n477899 0.1 1020672
09:00+3n468599 0.3 1021566
12:00+3nnw5691100 0.4 1023482
15:00+4nw457199 0.8 1022864
18:00+4nnw577699 0.2 1023842
21:00+2n268598 0.4 1024384
1 march, mon
mon100:00+2ene1288100 0.1 1024235
03:00+2wsw1294100 0.4 1024194
06:00+2nne1281100 0.3 1024203
09:00+1e2292100 0.3 1025219
12:00+5nne235786 0.0 10251016
15:00+6nnw334966 0.0 10261271
18:00+5nne456040 0.0 1026916
21:00+2ne247129 0.0 1029115
2 march, tue
tue200:00+1ene22760 0.0 102927
03:000ene228124 0.0 103028
06:000ene12840 0.0 103022
09:00+2nne12713 0.0 1031234
12:00+4nnw33540 0.0 10301021
15:00+5nw54580 0.0 1029970
18:00+3wnw456958 0.0 1028862
21:00+3wnw247578 0.0 1027473
3 march, wed
wed300:00+4s227892 0.0 102795
03:00+5wsw128496 0.0 102649
06:00+5nnw249394 0.1 1026128
09:00+4n128869 0.1 1026186
12:00+7nnw45623 0.0 1027728
15:00+7nw567012 0.0 1026845
18:00+7nw467569 0.1 1026644
21:00+5nw238465 0.1 102898